Weather History for Clinton, OK

Change the Weather History Date:

Wednesday, November 21, 2012

  Actual Average (KCSM) Record (KCSM)
Temperature  
Mean Temperature 54 °F -  
Max Temperature 73 °F 55 °F 73 °F (2012)
Min Temperature 35 °F 35 °F 23 °F (2008)
Degree Days  
Heating Degree Days 11    
Growing Degree Days 4 (Base 50)    
Moisture  
Dew Point 41 °F    
Average Humidity 61    
Maximum Humidity 93    
Minimum Humidity 23    
Precipitation  
Precipitation 0.00 in - - ()
Sea Level Pressure  
Sea Level Pressure 30.14 in    
Wind  
Wind Speed 6 mph (South)    
Max Wind Speed 26 mph    
Max Gust Speed 32 mph    
Visibility 8 miles    
Events Fog    
Averages and records for this station are not official NWS values.
T = Trace of Precipitation, MM = Missing Value Source: NWS Daily Summary

Daily Weather History Graph

Daily Weather History Graph

Search for Another Location

Airport:

Trip Planner

Search our weather history database for the weather conditions in past years. The results will help you decide how hot, cold, wet, or windy it might be!

Date:

Astronomy

Nov. 21, 2012 Rise Set
Actual Time 7:17 AM CST 5:25 PM CST
Civil Twilight 6:50 AM CST 5:52 PM CST
Nautical Twilight 6:19 AM CST 6:24 PM CST
Astronomical Twilight 5:48 AM CST 6:54 PM CST
Moon 1:31 PM CST (11/21) 12:51 AM CST (11/21)
Length of Visible Light 11h 02m
Length of Day
10h 07m
First Quarter, 62% of the Moon is Illuminated
Nov 21
First Quarter
Nov 28
Full
Dec 6
Last Quarter
Dec 13
New
Dec 19
First Quarter

Hourly Weather History & Observations

Time (CST) Temp. Windchill Dew Point Humidity Pressure Visibility Wind Dir Wind Speed Gust Speed Precip Events Conditions
12:15 AM 51.8 °F - 44.6 °F 76% 30.21 in 10.0 mi SSE 4.6 mph - N/A   Clear
12:35 AM 48.2 °F - 42.8 °F 82% 30.21 in 10.0 mi SSE 3.5 mph - N/A   Clear
12:55 AM 50.0 °F - 44.6 °F 82% 30.21 in 10.0 mi SE 3.5 mph - N/A   Clear
1:15 AM 51.8 °F - 44.6 °F 76% 30.20 in 10.0 mi SSE 3.5 mph - N/A   Clear
1:35 AM 51.8 °F - 44.6 °F 76% 30.20 in 10.0 mi SE 3.5 mph - N/A   Clear
1:55 AM 50.0 °F - 44.6 °F 82% 30.20 in 10.0 mi Calm Calm - N/A   Clear
2:15 AM 50.0 °F - 44.6 °F 82% 30.20 in 7.0 mi Calm Calm - N/A   Clear
2:35 AM 46.4 °F - 42.8 °F 87% 30.20 in 7.0 mi Calm Calm - N/A   Clear
2:55 AM 44.6 °F - 41.0 °F 87% 30.20 in 7.0 mi Calm Calm - N/A   Clear
3:15 AM 41.0 °F - 37.4 °F 87% 30.20 in 7.0 mi Calm Calm - N/A   Clear
3:35 AM 41.0 °F - 37.4 °F 87% 30.20 in 7.0 mi Calm Calm - N/A   Clear
3:55 AM 44.6 °F - 41.0 °F 87% 30.20 in 5.0 mi Calm Calm - N/A   Clear
4:15 AM 44.6 °F - 41.0 °F 87% 30.20 in 5.0 mi Calm Calm - N/A   Clear
4:35 AM 44.6 °F - 41.0 °F 87% 30.19 in 5.0 mi Calm Calm - N/A   Clear
4:55 AM 42.8 °F - 41.0 °F 93% 30.19 in 4.0 mi Calm Calm - N/A   Clear
5:15 AM 41.0 °F - 37.4 °F 87% 30.20 in 4.0 mi Calm Calm - N/A   Clear
5:35 AM 37.4 °F - 35.6 °F 93% 30.20 in 7.0 mi Calm Calm - N/A   Clear
5:55 AM 35.6 °F 32.8 °F 33.8 °F 93% 30.20 in 7.0 mi West 3.5 mph - N/A   Scattered Clouds
6:15 AM 37.4 °F - 35.6 °F 93% 30.21 in 0.2 mi Calm Calm - N/A Fog Fog
6:35 AM 39.2 °F - 37.4 °F 93% 30.21 in 0.5 mi Calm Calm - N/A Fog Fog
6:55 AM 37.4 °F - 35.6 °F 93% 30.21 in 0.2 mi Calm Calm - N/A Fog Fog
7:15 AM 35.6 °F - 33.8 °F 93% 30.22 in 0.2 mi Calm Calm - N/A Fog Fog
7:35 AM 35.6 °F - 33.8 °F 93% 30.22 in 0.2 mi Calm Calm - N/A Fog Fog
8:15 AM 37.4 °F - 35.6 °F 93% 30.22 in 0.2 mi Calm Calm - N/A Fog Fog
8:35 AM 39.2 °F - 37.4 °F 93% 30.23 in 1.2 mi Calm Calm - N/A   Mist
8:55 AM 42.8 °F - 41.0 °F 93% 30.22 in 3.0 mi Calm Calm - N/A   Mist
9:15 AM 46.4 °F 45.2 °F 44.6 °F 93% 30.23 in 5.0 mi SE 3.5 mph - N/A   Clear
9:35 AM 51.8 °F - 48.2 °F 88% 30.23 in 10.0 mi SSE 5.8 mph - N/A   Clear
9:55 AM 53.6 °F - 46.4 °F 77% 30.23 in 10.0 mi SSE 8.1 mph - N/A   Clear
10:15 AM 57.2 °F - 46.4 °F 67% 30.23 in 10.0 mi South 8.1 mph - N/A   Clear
10:35 AM 59.0 °F - 46.4 °F 63% 30.22 in 10.0 mi South 11.5 mph - N/A   Clear
11:15 AM 64.4 °F - 44.6 °F 49% 30.21 in 10.0 mi South 10.4 mph - N/A   Clear
11:35 AM 68.0 °F - 44.6 °F 43% 30.19 in 10.0 mi South 12.7 mph 19.6 mph N/A   Clear
12:15 PM 71.6 °F - 42.8 °F 35% 30.17 in 10.0 mi South 21.9 mph 27.6 mph N/A   Clear
12:35 PM 71.6 °F - 41.0 °F 33% 30.15 in 10.0 mi South 23.0 mph 28.8 mph N/A   Clear
12:55 PM 73.4 °F - 39.2 °F 29% 30.14 in 10.0 mi South 26.5 mph 31.1 mph N/A   Clear
1:15 PM 73.4 °F - 37.4 °F 27% 30.13 in 10.0 mi South 21.9 mph 31.1 mph N/A   Clear
1:35 PM 73.4 °F - 37.4 °F 27% 30.12 in 10.0 mi South 24.2 mph - N/A   Clear
1:55 PM 73.4 °F - 39.2 °F 29% 30.11 in 10.0 mi SSW 24.2 mph 32.2 mph N/A   Clear
2:35 PM 73.4 °F - 42.8 °F 33% 30.09 in 10.0 mi South 21.9 mph 28.8 mph N/A   Clear
2:55 PM 73.4 °F - 42.8 °F 33% 30.08 in 10.0 mi South 20.7 mph 26.5 mph N/A   Clear
3:15 PM 73.4 °F - 37.4 °F 27% 30.07 in 10.0 mi South 23.0 mph 26.5 mph N/A   Clear
3:55 PM 71.6 °F - 33.8 °F 25% 30.07 in 10.0 mi SSW 16.1 mph 23.0 mph N/A   Clear
4:15 PM 71.6 °F - 32.0 °F 23% 30.07 in 10.0 mi South 17.3 mph 24.2 mph N/A   Clear
4:35 PM 71.6 °F - 32.0 °F 23% 30.07 in 10.0 mi South 15.0 mph - N/A   Clear
4:55 PM 69.8 °F - 35.6 °F 28% 30.06 in 10.0 mi South 12.7 mph - N/A   Clear
5:15 PM 68.0 °F - 35.6 °F 30% 30.05 in 10.0 mi South 12.7 mph - N/A   Clear
5:35 PM 68.0 °F - 35.6 °F 30% 30.05 in 10.0 mi South 13.8 mph - N/A   Clear
5:55 PM 66.2 °F - 35.6 °F 32% 30.06 in 10.0 mi South 10.4 mph - N/A   Clear
6:15 PM 64.4 °F - 37.4 °F 37% 30.06 in 10.0 mi South 9.2 mph - N/A   Clear
6:35 PM 64.4 °F - 37.4 °F 37% 30.06 in 10.0 mi South 10.4 mph - N/A   Clear
6:55 PM 62.6 °F - 39.2 °F 42% 30.06 in 10.0 mi South 9.2 mph - N/A   Clear
7:15 PM 62.6 °F - 41.0 °F 45% 30.06 in 10.0 mi South 10.4 mph - N/A   Clear
7:55 PM 62.6 °F - 39.2 °F 42% 30.05 in 10.0 mi South 10.4 mph - N/A   Clear
8:15 PM 62.6 °F - 41.0 °F 45% 30.05 in 10.0 mi South 10.4 mph - N/A   Clear
8:35 PM 62.6 °F - 41.0 °F 45% 30.05 in 10.0 mi South 11.5 mph - N/A   Clear
8:55 PM 62.6 °F - 42.8 °F 48% 30.05 in 10.0 mi South 11.5 mph 17.3 mph N/A   Clear
9:15 PM 62.6 °F - 44.6 °F 52% 30.04 in 10.0 mi South 11.5 mph - N/A   Clear
9:35 PM 62.6 °F - 44.6 °F 52% 30.04 in 10.0 mi South 12.7 mph - N/A   Clear
9:55 PM 62.6 °F - 46.4 °F 55% 30.04 in 10.0 mi South 13.8 mph - N/A   Clear
10:15 PM 62.6 °F - 46.4 °F 55% 30.04 in 10.0 mi South 12.7 mph - N/A   Clear
10:35 PM 62.6 °F - 46.4 °F 55% 30.03 in 10.0 mi South 12.7 mph - N/A   Clear
10:55 PM 62.6 °F - 44.6 °F 52% 30.02 in 10.0 mi South 13.8 mph - N/A   Clear
11:15 PM 60.8 °F - 44.6 °F 55% 30.02 in 10.0 mi South 12.7 mph - N/A   Clear
11:35 PM 60.8 °F - 44.6 °F 55% 30.01 in 10.0 mi South 12.7 mph - N/A   Clear
11:55 PM 60.8 °F - 44.6 °F 55% 30.00 in 10.0 mi South 16.1 mph - N/A   Clear